Asheville, NC

2:27 AM EDT on April 27, 2017 (GMT -0400)
Asheville Regional

Weather History for KAVL - December, 2009

Change the Weather History Date:

Saturday, December 5, 2009

  Actual Average Record
Temperature  
Mean Temperature 34 °F 42 °F  
Max Temperature 40 °F 52 °F 72 °F (1998)
Min Temperature 28 °F 31 °F 13 °F (1893)
Degree Days  
Heating Degree Days 31 23  
Month to date heating degree days 118 114  
Since 1 July heating degree days 924 981  
Cooling Degree Days 0 0  
Month to date cooling degree days 0 0  
Year to date cooling degree days 774 863  
Moisture  
Dew Point 29 °F    
Average Humidity 80    
Maximum Humidity 96    
Minimum Humidity 64    
Precipitation  
Precipitation 0.06 in 0.14 in 1.39 in (1973)
Month to date precipitation 2.02 0.67  
Year to date precipitation 54.99 42.65  
Snow  
Snow T in 0.00 in 1.70 in (1962)
Month to date snowfall T 0.0  
Since 1 July snowfall T 0.1  
Snow Depth 0.00 in    
Sea Level Pressure  
Sea Level Pressure 30.00 in    
Wind  
Wind Speed 13 mph (NNW)    
Max Wind Speed 31 mph    
Max Gust Speed 38 mph    
Visibility 8 miles    
Events Rain , Snow    
T = Trace of Precipitation, MM = Missing Value Source: NWS Daily Summary

Daily Weather History Graph

Daily Weather History Graph

Search for Another Location

Airport or City:

Trip Planner

Search our weather history database for the weather conditions in past years. The results will help you decide how hot, cold, wet, or windy it might be!

Date:

Astronomy

Dec. 05, 2009 Rise Set
Actual Time 7:24 AM EST 5:17 PM EST
Civil Twilight 6:56 AM EST 5:45 PM EST
Nautical Twilight 6:24 AM EST 6:16 PM EST
Astronomical Twilight 5:54 AM EST 6:47 PM EST
Moon 9:07 PM EST (12/5) 10:34 AM EST (12/5)
Length of Visible Light 10h 48m
Length of Day
9h 52m
Waning Gibbous, 85% of the Moon is Illuminated
Dec 5
Waning Gibbous
Dec 8
Last Quarter
Dec 16
New
Dec 24
First Quarter
Dec 31
Full

Hourly Weather History & Observations

Time (EST) Temp. Windchill Dew Point Humidity Pressure Visibility Wind Dir Wind Speed Gust Speed Precip Events Conditions
12:54 AM 39.9 °F - 35.1 °F 83% 30.00 in 10.0 mi Calm Calm - N/A   Overcast
1:54 AM 39.9 °F 36.7 °F 35.1 °F 83% 29.96 in 10.0 mi North 4.6 mph - N/A   Overcast
2:54 AM 39.0 °F 34.8 °F 34.0 °F 82% 29.96 in 10.0 mi NNW 5.8 mph - N/A   Overcast
3:54 AM 39.0 °F 34.8 °F 35.1 °F 86% 29.94 in 10.0 mi NW 5.8 mph - N/A   Overcast
4:54 AM 37.9 °F 33.5 °F 35.1 °F 89% 29.95 in 10.0 mi NNW 5.8 mph - 0.00 in Rain Light Rain
5:54 AM 37.9 °F 33.5 °F 35.1 °F 89% 29.93 in 9.0 mi NNW 5.8 mph - 0.01 in Rain Light Rain
6:54 AM 37.0 °F 32.4 °F 36.0 °F 96% 29.95 in 7.0 mi NNW 5.8 mph - 0.02 in Rain Light Rain
7:36 AM 37.4 °F 32.8 °F 35.6 °F 93% 29.91 in 6.0 mi North 5.8 mph - 0.01 in Rain Light Rain
7:54 AM 37.0 °F 31.0 °F 35.1 °F 93% 29.91 in 6.0 mi NNW 8.1 mph - 0.01 in Rain Light Rain
8:54 AM 35.1 °F 25.9 °F 33.1 °F 92% 29.95 in 10.0 mi NNW 13.8 mph - 0.00 in   Overcast
9:13 AM 35.6 °F 25.9 °F 32.0 °F 87% 29.94 in 10.0 mi North 16.1 mph 20.7 mph 0.00 in Snow Light Snow
9:20 AM 33.8 °F 23.9 °F 32.0 °F 93% 29.95 in 6.0 mi North 15.0 mph - 0.00 in Snow Light Snow
9:37 AM 33.8 °F 24.3 °F 32.0 °F 93% 29.95 in 2.5 mi North 13.8 mph 19.6 mph 0.01 in Snow Light Snow
9:45 AM 33.8 °F 24.8 °F 32.0 °F 93% 29.96 in 3.0 mi NNW 12.7 mph 20.7 mph 0.01 in Snow Light Snow
9:54 AM 34.0 °F 24.2 °F 32.0 °F 92% 29.97 in 3.0 mi North 15.0 mph - 0.02 in Snow Light Snow
10:06 AM 33.8 °F 23.9 °F 30.2 °F 87% 29.96 in 1.8 mi North 15.0 mph 21.9 mph 0.00 in Snow Light Snow
10:18 AM 33.8 °F 23.2 °F 30.2 °F 87% 29.97 in 1.2 mi North 17.3 mph 25.3 mph 0.00 in Snow Light Snow
10:29 AM 33.8 °F 22.8 °F 30.2 °F 87% 29.97 in 2.0 mi North 18.4 mph 28.8 mph 0.00 in Snow Light Snow
10:33 AM 33.8 °F 22.5 °F 30.2 °F 87% 29.97 in 1.8 mi NNW 19.6 mph 28.8 mph 0.00 in Snow Light Snow
10:47 AM 33.8 °F 23.5 °F 30.2 °F 87% 29.97 in 2.0 mi North 16.1 mph 25.3 mph 0.00 in Snow Light Snow
10:54 AM 34.0 °F 23.0 °F 30.9 °F 89% 29.99 in 3.0 mi North 18.4 mph 26.5 mph 0.00 in Snow Light Snow
11:18 AM 33.8 °F 22.8 °F 30.2 °F 87% 29.97 in 2.5 mi NNW 18.4 mph 28.8 mph 0.00 in Snow Light Snow
11:41 AM 35.6 °F 25.2 °F 30.2 °F 81% 29.96 in 2.5 mi NNW 18.4 mph 25.3 mph 0.00 in   Mostly Cloudy
11:54 AM 36.0 °F 25.6 °F 32.0 °F 86% 29.97 in 2.5 mi NNW 18.4 mph 26.5 mph 0.00 in   Mostly Cloudy
12:01 PM 35.6 °F 25.2 °F 30.2 °F 81% 29.95 in 10.0 mi NNW 18.4 mph 28.8 mph 0.00 in   Mostly Cloudy
12:54 PM 36.0 °F 25.3 °F 28.0 °F 73% 29.97 in 10.0 mi NNW 19.6 mph 34.5 mph 0.00 in   Overcast
1:23 PM 35.6 °F 25.2 °F 28.4 °F 75% 29.96 in 10.0 mi NNW 18.4 mph 29.9 mph N/A   Mostly Cloudy
1:46 PM 35.6 °F 23.4 °F 26.6 °F 70% 29.97 in 10.0 mi NNW 25.3 mph 31.1 mph N/A   Mostly Cloudy
1:54 PM 37.0 °F 27.4 °F 27.0 °F 67% 29.98 in 10.0 mi NNW 17.3 mph 29.9 mph N/A   Mostly Cloudy
2:54 PM 36.0 °F 24.2 °F 26.1 °F 67% 29.99 in 10.0 mi NNW 24.2 mph 32.2 mph N/A   Partly Cloudy
3:03 PM 35.6 °F 22.7 °F 26.6 °F 70% 29.98 in 10.0 mi NNW 28.8 mph 34.5 mph N/A   Mostly Cloudy
3:54 PM 34.0 °F 22.4 °F 26.1 °F 73% 30.02 in 10.0 mi NNW 20.7 mph 26.5 mph N/A   Mostly Cloudy
4:01 PM 33.8 °F 22.2 °F 26.6 °F 75% 30.01 in 10.0 mi NNW 20.7 mph 31.1 mph N/A   Scattered Clouds
4:49 PM 32.0 °F 20.5 °F 26.6 °F 80% 30.03 in 10.0 mi North 18.4 mph 26.5 mph N/A   Mostly Cloudy
4:54 PM 32.0 °F 20.5 °F 26.1 °F 79% 30.05 in 10.0 mi North 18.4 mph 26.5 mph N/A   Mostly Cloudy
5:04 PM 32.0 °F 21.6 °F 26.6 °F 80% 30.03 in 10.0 mi North 15.0 mph 23.0 mph N/A   Mostly Cloudy
5:31 PM 30.2 °F 18.1 °F 24.8 °F 80% 30.04 in 10.0 mi NNW 18.4 mph 23.0 mph N/A   Overcast
5:54 PM 30.9 °F 19.8 °F 25.0 °F 79% 30.07 in 10.0 mi NNW 16.1 mph 26.5 mph N/A   Mostly Cloudy
6:04 PM 30.2 °F 19.8 °F 24.8 °F 80% 30.05 in 10.0 mi NNW 13.8 mph 21.9 mph N/A   Scattered Clouds
6:16 PM 30.2 °F 20.8 °F 24.8 °F 80% 30.06 in 10.0 mi North 11.5 mph 17.3 mph N/A   Mostly Cloudy
6:54 PM 30.9 °F 20.7 °F 24.1 °F 76% 30.10 in 10.0 mi North 13.8 mph 23.0 mph N/A   Overcast
7:54 PM 30.9 °F 20.2 °F 21.9 °F 69% 30.12 in 10.0 mi North 15.0 mph 26.5 mph N/A   Overcast
8:54 PM 30.0 °F 19.1 °F 21.0 °F 69% 30.12 in 10.0 mi North 15.0 mph 25.3 mph N/A   Overcast
9:54 PM 30.0 °F 20.5 °F 21.0 °F 69% 30.13 in 10.0 mi North 11.5 mph 19.6 mph N/A   Mostly Cloudy
10:26 PM 28.4 °F 16.2 °F 21.2 °F 74% 30.11 in 10.0 mi NNW 17.3 mph - N/A   Scattered Clouds
10:54 PM 28.9 °F 19.2 °F 19.9 °F 69% 30.16 in 10.0 mi North 11.5 mph 23.0 mph N/A   Clear
11:54 PM 28.9 °F 17.3 °F 19.9 °F 69% 30.15 in 10.0 mi NNW 16.1 mph 19.6 mph N/A   Clear